Location: Cheadle
(51.0146°N, 113.5417°W)
Time: 10:18:31
(UTC+00:00)

Envisat - Visible Passes

Search period start: 28 May 2023 00:00
Search period end: 07 June 2023 00:00
Orbit: 763 x 765 km, 98.2° (Epoch: 27 May)

Date Brightness Start Highest point End Pass type
(mag) Time Alt. Az. Time Alt. Az. Time Alt. Az.
29 May 5.0 10:37:02 10° NE 10:41:18 26° E 10:45:31 10° SSE visible
30 May 5.6 10:01:17 10° ENE 10:03:41 13° E 10:06:04 10° ESE visible
01 Jun 5.3 10:24:54 10° NE 10:28:45 21° E 10:32:34 10° SE visible
02 Jun 6.0 09:50:27 10° ENE 09:51:03 10° E 09:51:38 10° E visible
04 Jun 5.5 10:12:53 10° NE 10:16:10 17° E 10:19:25 10° SE visible
06 Jun 5.0 10:36:53 10° NE 10:41:11 27° E 10:45:26 10° SSE visible
